Location: Anciles
(42.5833°N, 0.5167°E)
Time: 11:45:15
(UTC+00:00)

Cosmos 1655 Rocket - Pass Details

Date: 10 December 2019
Orbit: 970 x 1006 km, 83.0° (Epoch: 22 January)

Event Time Altitude Azimuth Distance (km) Brightness Sun altitude
Rises 18:25:08 0° 173° (S) 3,701 7.1 -21.4°
Reaches altitude 10° 18:27:42 10° 170° (S) 2,751 6.4 -21.9°
Maximum altitude 18:33:52 59° 92° (E) 1,129 4.0 -23.0°
Enters shadow 18:37:02 29° 25° (NNE) 1,713 5.0 -23.6°
